Date String (YYYY-MM-DD hh:mm:ss) UTC,Instrument flags,Ambient pressure (hPa),Sample flow (lpm),Bypass flow (lpm),Sample temperature (°C),Ambient temperature (°C),ASC tube jacket temperature (°C),LED temperature (°C),Box temperature (°C),Sample RH (%),Span deviation,Mass concentration (μg/m³),Mass concentration (μg/m³),Mass concentration (μg/m³)
DateTimeUTC,F1_M11,P_M11,Q1_M11,Q2_M11,T1_M11,T2_M11,T3_M11,T4_M11,T5_M11,U1_M11,ZSPAN_M11,X0_M11,X2_M11,X1_M11
2023-01-16 18:00:00,,0812.3,5.02,0.00,22.7,21.2,00.0,31.6,24.5,14.6,0000.0,0009.34,0006.33,0006.09
2023-01-16 18:01:00,,0812.3,5.00,0.00,22.7,21.3,00.0,31.6,24.5,12.6,0000.0,0009.13,0006.01,0005.78
2023-01-16 18:02:00,,0812.3,5.00,0.00,22.7,21.3,00.0,31.6,24.5,13.5,0000.0,0008.84,0005.73,0005.47
2023-01-16 18:03:00,,0812.3,5.00,0.00,22.7,21.3,00.0,31.6,24.4,16.3,0000.0,0008.81,0005.68,0005.39
2023-01-16 18:04:00,,0812.3,5.01,0.00,22.7,21.2,00.0,31.6,24.4,17.3,0000.0,0009.05,0005.83,0005.51
2023-01-16 18:05:00,,0812.3,5.01,0.00,22.7,21.2,00.0,31.6,24.4,17.3,0000.0,0009.23,0005.96,0005.64
2023-01-16 18:06:00,,0812.4,5.00,0.00,22.7,21.2,00.0,31.6,24.4,17.2,0000.0,0009.32,0006.04,0005.72
2023-01-16 18:07:00,,0812.3,5.02,0.00,22.6,21.1,00.0,31.6,24.4,17.3,0000.0,0009.41,0006.09,0005.77
2023-01-16 18:08:00,,0812.2,5.00,0.00,22.6,21.1,00.0,31.6,24.4,17.0,0000.0,0009.97,0006.42,0006.03
2023-01-16 18:09:00,,0812.3,5.01,0.00,22.6,21.0,00.0,31.6,24.3,17.3,0000.0,0010.57,0006.66,0006.28
2023-01-16 18:10:00,,0812.3,5.01,0.00,22.6,21.0,00.0,31.5,24.3,17.3,-000.0,0011.48,0006.83,0006.43
2023-01-16 18:11:00,,0812.2,4.99,0.00,22.6,20.9,00.0,31.5,24.3,17.0,-002.1,0011.69,0007.14,0006.74
2023-01-16 18:12:00,,0812.1,5.01,0.00,22.6,20.9,00.0,31.5,24.3,16.9,-002.0,0012.10,0007.63,0007.23
2023-01-16 18:13:00,,0812.2,5.01,0.00,22.5,21.0,00.0,31.5,24.3,17.1,-001.7,0012.71,0008.10,0007.71
2023-01-16 18:14:00,,0812.1,4.98,0.00,22.5,21.0,00.0,31.5,24.3,17.2,-001.3,0013.07,0008.40,0008.00
2023-01-16 18:15:00,,0812.1,4.97,0.00,22.5,21.0,00.0,31.5,24.3,16.8,-001.0,0013.20,0008.40,0008.03
2023-01-16 18:16:00,,0812.2,4.98,0.00,22.5,21.1,00.0,31.5,24.3,16.6,-001.1,0013.45,0008.43,0008.02
2023-01-16 18:17:00,,0812.1,5.01,0.00,22.6,21.2,00.0,31.5,24.4,16.5,-000.7,0013.47,0008.43,0008.02
2023-01-16 18:18:00,,0812.1,4.99,0.00,22.6,21.2,00.0,31.5,24.4,16.2,-000.9,0013.91,0008.40,0008.00
2023-01-16 18:19:00,,0812.1,4.98,0.00,22.6,21.2,00.0,31.5,24.4,15.2,-001.1,0014.00,0008.23,0007.86
2023-01-16 18:20:00,,0812.2,4.99,0.00,22.6,21.2,00.0,31.5,24.4,16.1,-001.0,0013.58,0008.13,0007.76
2023-01-16 18:21:00,,0812.1,5.00,0.00,22.6,21.1,00.0,31.4,24.3,16.3,-000.8,0012.88,0008.10,0007.73
2023-01-16 18:22:00,,0812.1,5.02,0.00,22.6,21.1,00.0,31.4,24.3,17.0,-000.4,0013.18,0008.12,0007.74
2023-01-16 18:23:00,,0812.2,5.01,0.00,22.6,21.2,00.0,31.4,24.4,16.6,-000.1,0013.24,0008.14,0007.76
2023-01-16 18:24:00,,0812.2,5.00,0.00,22.6,21.3,00.0,31.4,24.4,15.8,-000.4,0013.08,0008.05,0007.67
2023-01-16 18:25:00,,0812.2,5.00,0.00,22.6,21.3,00.0,31.4,24.4,16.4,-000.4,0012.88,0007.96,0007.62
2023-01-16 18:26:00,,0812.2,4.99,0.00,22.6,21.4,00.0,31.4,24.4,16.3,-000.9,0012.71,0007.92,0007.60
2023-01-16 18:27:00,,0812.1,4.99,0.00,22.6,21.4,00.0,31.4,24.4,16.4,-001.1,0012.40,0007.93,0007.64
2023-01-16 18:28:00,,0812.2,5.00,0.00,22.6,21.3,00.0,31.4,24.4,16.9,-001.1,0012.49,0007.99,0007.71
2023-01-16 18:29:00,,0812.1,5.00,0.00,22.6,21.3,00.0,31.5,24.4,17.4,-001.3,0012.21,0008.08,0007.81
2023-01-16 18:30:00,,0812.3,5.00,0.00,22.6,21.4,00.0,31.5,24.5,17.3,-001.2,0012.00,0008.25,0007.98
2023-01-16 18:31:00,,0812.3,5.00,0.00,22.6,21.4,00.0,31.5,24.5,17.5,0000.2,0012.10,0008.43,0008.18
2023-01-16 18:32:00,,0812.2,5.00,0.00,22.6,21.4,00.0,31.5,24.5,17.7,0000.3,0012.12,0008.52,0008.29
2023-01-16 18:33:00,,0812.2,5.02,0.00,22.7,21.4,00.0,31.5,24.5,17.5,0000.7,0011.83,0008.55,0008.33
2023-01-16 18:34:00,,0812.2,4.99,0.00,22.7,21.4,00.0,31.5,24.5,17.5,0000.4,0011.81,0008.56,0008.34
2023-01-16 18:35:00,,0812.2,4.99,0.00,22.7,21.4,00.0,31.5,24.5,17.0,0000.6,0011.83,0008.61,0008.41
2023-01-16 18:36:00,,0812.2,5.00,0.00,22.7,21.4,00.0,31.5,24.5,17.2,0000.2,0012.20,0008.68,0008.46
2023-01-16 18:37:00,,0812.1,4.99,0.00,22.7,21.4,00.0,31.5,24.5,17.5,-000.1,0012.62,0008.79,0008.54
2023-01-16 18:38:00,,0812.1,5.02,0.00,22.7,21.5,00.0,31.5,24.5,17.8,0000.1,0012.67,0008.85,0008.60
2023-01-16 18:39:00,,0812.2,5.01,0.00,22.7,21.5,00.0,31.5,24.5,18.0,-000.7,0012.68,0008.91,0008.67
2023-01-16 18:40:00,,0812.2,5.03,0.00,22.7,21.5,00.0,31.5,24.6,18.0,-001.1,0012.66,0008.94,0008.70
2023-01-16 18:41:00,,0812.2,5.00,0.00,22.7,21.5,00.0,31.5,24.6,17.8,-001.4,0012.66,0008.93,0008.68
2023-01-16 18:42:00,,0812.3,4.97,0.00,22.7,21.5,00.0,31.5,24.6,17.2,-002.7,0012.66,0008.90,0008.65
2023-01-16 18:43:00,,0812.2,5.01,0.00,22.7,21.5,00.0,31.5,24.6,16.9,-003.2,0012.53,0008.81,0008.57
2023-01-16 18:44:00,,0812.1,4.99,0.00,22.7,21.5,00.0,31.5,24.6,17.2,-003.7,0012.45,0008.77,0008.54
2023-01-16 18:45:00,,0812.0,4.99,0.00,22.7,21.5,00.0,31.5,24.6,17.2,-003.5,0012.45,0008.76,0008.52
2023-01-16 18:46:00,,0812.0,4.99,0.00,22.7,21.5,00.0,31.5,24.6,17.2,-003.5,0012.74,0008.78,0008.54
2023-01-16 18:47:00,,0812.0,4.98,0.00,22.8,21.5,00.0,31.6,24.6,15.9,-003.6,0012.76,0008.70,0008.48
2023-01-16 18:48:00,,0812.1,5.00,0.00,22.7,21.5,00.0,31.6,24.6,13.6,-002.8,0012.05,0008.32,0008.13
2023-01-16 18:49:00,,0812.0,5.01,0.00,22.7,21.4,00.0,31.6,24.5,13.3,-000.7,0011.66,0007.94,0007.74
2023-01-16 18:50:00,,0812.0,5.00,0.00,22.7,21.4,00.0,31.6,24.6,14.8,0000.0,0011.34,0007.66,0007.45
2023-01-16 18:51:00,,0812.0,5.00,0.00,22.7,21.4,00.0,31.6,24.6,15.5,0000.0,0011.22,0007.52,0007.28
2023-01-16 18:52:00,,0812.0,5.00,0.00,22.7,21.4,00.0,31.6,24.6,15.5,0000.0,0011.30,0007.42,0007.16
2023-01-16 18:53:00,,0812.0,5.00,0.00,22.7,21.4,00.0,31.6,24.6,15.4,0000.0,0011.51,0007.31,0007.02
2023-01-16 18:54:00,,0812.1,5.00,0.00,22.7,21.3,00.0,31.6,24.5,16.0,0000.0,0011.60,0007.34,0007.03
2023-01-16 18:55:00,,0812.1,5.00,0.00,22.7,21.3,00.0,31.6,24.5,16.4,0000.0,0011.68,0007.34,0007.01
2023-01-16 18:56:00,,0812.1,5.01,0.00,22.7,21.3,00.0,31.6,24.5,16.6,0000.0,0011.84,0007.35,0007.01
2023-01-16 18:57:00,,0811.9,5.01,0.00,22.7,21.2,00.0,31.6,24.5,16.6,0000.0,0012.13,0007.35,0007.01
2023-01-16 18:58:00,,0812.0,5.00,0.00,22.7,21.2,00.0,31.5,24.5,16.7,0000.0,0012.26,0007.42,0007.08
2023-01-16 18:59:00,,0812.0,4.99,0.00,22.7,21.2,00.0,31.5,24.5,16.8,0000.0,0012.72,0007.79,0007.43
